Time,TemperatureF,DewpointF,PressureIn,WindDirection,WindDirectionDegrees,WindSpeedMPH,WindSpeedGustMPH,Humidity,HourlyPrecipIn,Conditions,Clouds,dailyrainin,SoftwareType,DateUTC
2013-03-07 00:14:00,71.0,-99.9,30.13,SE,130,-999.0,2.0,-999,-99.99,,,-99.99,,2013-03-07 10:14:00,
2013-03-07 00:24:00,71.0,-99.9,30.13,SSW,211,0.0,2.0,-999,-99.99,,,-99.99,,2013-03-07 10:24:00,
2013-03-07 00:33:00,71.0,-99.9,30.12,South,178,-999.0,2.0,-999,-99.99,,,-99.99,,2013-03-07 10:33:00,
2013-03-07 00:43:00,71.0,-99.9,30.12,North,350,1.0,2.0,-999,-99.99,,,-99.99,,2013-03-07 10:43:00,
2013-03-07 00:53:00,72.0,-99.9,30.12,South,176,-999.0,2.0,-999,-99.99,,,-99.99,,2013-03-07 10:53:00,
2013-03-07 01:04:00,71.0,-99.9,30.12,North,357,2.0,5.0,-999,-99.99,,,-99.99,,2013-03-07 11:04:00,
2013-03-07 01:12:00,72.0,-99.9,30.12,SSW,197,-999.0,2.0,-999,-99.99,,,-99.99,,2013-03-07 11:12:00,
2013-03-07 01:23:00,71.0,-99.9,30.11,WSW,248,2.0,3.0,-999,-99.99,,,-99.99,,2013-03-07 11:23:00,
2013-03-07 01:34:00,71.0,-99.9,30.11,ESE,107,2.0,3.0,-999,-99.99,,,-99.99,,2013-03-07 11:34:00,
2013-03-07 01:44:00,70.0,-99.9,30.11,East,87,1.0,2.0,-999,-99.99,,,-99.99,,2013-03-07 11:44:00,
2013-03-07 01:55:00,70.0,-99.9,30.10,ENE,67,2.0,3.0,-999,-99.99,,,-99.99,,2013-03-07 11:55:00,
2013-03-07 02:04:00,70.0,-99.9,30.10,East,90,0.0,1.0,-999,-99.99,,,-99.99,,2013-03-07 12:04:00,
2013-03-07 02:13:00,70.0,-99.9,30.09,North,-999,-999.0,-999.0,-999,-99.99,,,-99.99,,2013-03-07 12:13:00,
2013-03-07 02:23:00,70.0,-99.9,30.09,North,-999,-999.0,-999.0,-999,-99.99,,,-99.99,,2013-03-07 12:23:00,
2013-03-07 02:34:00,70.0,-99.9,30.09,South,174,2.0,2.0,-999,-99.99,,,-99.99,,2013-03-07 12:34:00,
2013-03-07 02:43:00,70.0,-99.9,30.08,SSE,164,1.0,2.0,-999,-99.99,,,-99.99,,2013-03-07 12:43:00,
2013-03-07 03:03:00,69.0,-99.9,30.08,NE,56,2.0,3.0,-999,-99.99,,,-99.99,,2013-03-07 13:03:00,
2013-03-07 03:13:00,69.0,-99.9,30.08,ESE,103,1.0,2.0,-999,-99.99,,,-99.99,,2013-03-07 13:13:00,
2013-03-07 03:23:00,69.0,-99.9,30.07,ENE,65,1.0,1.0,-999,-99.99,,,-99.99,,2013-03-07 13:23:00,
2013-03-07 03:33:00,69.0,-99.9,30.07,North,-999,-999.0,-999.0,-999,-99.99,,,-99.99,,2013-03-07 13:33:00,
2013-03-07 03:42:00,69.0,-99.9,30.06,ENE,60,2.0,3.0,-999,-99.99,,,-99.99,,2013-03-07 13:42:00,
2013-03-07 03:53:00,69.0,-99.9,30.06,ESE,114,3.0,4.0,-999,-99.99,,,-99.99,,2013-03-07 13:53:00,
2013-03-07 04:02:00,68.0,-99.9,30.06,ESE,102,1.0,3.0,-999,-99.99,,,-99.99,,2013-03-07 14:02:00,
2013-03-07 04:12:00,69.0,-99.9,30.06,ESE,107,-999.0,1.0,-999,-99.99,,,-99.99,,2013-03-07 14:12:00,
2013-03-07 04:23:00,68.0,-99.9,30.06,East,94,0.0,2.0,-999,-99.99,,,-99.99,,2013-03-07 14:23:00,
2013-03-07 04:34:00,68.0,-99.9,30.06,SE,125,1.0,2.0,-999,-99.99,,,-99.99,,2013-03-07 14:34:00,
2013-03-07 04:43:00,68.0,-99.9,30.06,ENE,70,1.0,2.0,-999,-99.99,,,-99.99,,2013-03-07 14:43:00,
2013-03-07 04:54:00,68.0,-99.9,30.06,ENE,70,-999.0,1.0,-999,-99.99,,,-99.99,,2013-03-07 14:54:00,
2013-03-07 05:03:00,68.0,-99.9,30.06,ENE,70,0.0,2.0,-999,-99.99,,,-99.99,,2013-03-07 15:03:00,
2013-03-07 05:13:00,68.0,-99.9,30.06,ENE,57,1.0,2.0,-999,-99.99,,,-99.99,,2013-03-07 15:13:00,
2013-03-07 05:23:00,69.0,-99.9,30.06,North,-999,-999.0,-999.0,-999,-99.99,,,-99.99,,2013-03-07 15:23:00,
2013-03-07 05:33:00,68.0,-99.9,30.06,NE,50,-999.0,1.0,-999,-99.99,,,-99.99,,2013-03-07 15:33:00,
2013-03-07 05:43:00,68.0,-99.9,30.06,East,89,-999.0,1.0,-999,-99.99,,,-99.99,,2013-03-07 15:43:00,
2013-03-07 05:53:00,68.0,-99.9,30.06,North,-999,-999.0,-999.0,-999,-99.99,,,-99.99,,2013-03-07 15:53:00,
2013-03-07 06:03:00,68.0,-99.9,30.06,North,-999,-999.0,-999.0,-999,-99.99,,,-99.99,,2013-03-07 16:03:00,
2013-03-07 06:13:00,68.0,-99.9,30.06,North,-999,-999.0,-999.0,-999,-99.99,,,-99.99,,2013-03-07 16:13:00,
2013-03-07 06:24:00,68.0,-99.9,30.06,ESE,113,3.0,3.0,-999,-99.99,,,-99.99,,2013-03-07 16:24:00,
2013-03-07 06:33:00,68.0,-99.9,30.06,ENE,64,2.0,3.0,-999,-99.99,,,-99.99,,2013-03-07 16:33:00,
2013-03-07 06:43:00,68.0,-99.9,30.06,NNE,23,1.0,2.0,-999,-99.99,,,-99.99,,2013-03-07 16:43:00,
2013-03-07 06:53:00,69.0,-99.9,30.07,NNW,330,2.0,3.0,-999,-99.99,,,-99.99,,2013-03-07 16:53:00,
2013-03-07 07:03:00,69.0,-99.9,30.07,NNW,343,3.0,4.0,-999,-99.99,,,-99.99,,2013-03-07 17:03:00,
2013-03-07 07:12:00,69.0,-99.9,30.08,NW,304,2.0,3.0,-999,-99.99,,,-99.99,,2013-03-07 17:12:00,
2013-03-07 07:23:00,69.0,-99.9,30.08,West,281,2.0,2.0,-999,-99.99,,,-99.99,,2013-03-07 17:23:00,
2013-03-07 07:34:00,70.0,-99.9,30.08,North,353,4.0,6.0,-999,-99.99,,,-99.99,,2013-03-07 17:34:00,
2013-03-07 07:44:00,69.0,-99.9,30.08,WNW,289,3.0,4.0,-999,-99.99,,,-99.99,,2013-03-07 17:44:00,
2013-03-07 07:55:00,69.0,-99.9,30.09,NNW,333,2.0,3.0,-999,-99.99,,,-99.99,,2013-03-07 17:55:00,
2013-03-07 08:04:00,70.0,-99.9,30.09,NW,323,2.0,3.0,-999,-99.99,,,-99.99,,2013-03-07 18:04:00,
2013-03-07 08:13:00,70.0,-99.9,30.09,NNW,333,2.0,3.0,-999,-99.99,,,-99.99,,2013-03-07 18:13:00,
2013-03-07 08:22:00,71.0,-99.9,30.09,NNW,332,2.0,3.0,-999,-99.99,,,-99.99,,2013-03-07 18:22:00,
2013-03-07 08:33:00,71.0,-99.9,30.09,NW,309,3.0,3.0,-999,-99.99,,,-99.99,,2013-03-07 18:33:00,
2013-03-07 08:43:00,72.0,-99.9,30.10,WNW,295,2.0,2.0,-999,-99.99,,,-99.99,,2013-03-07 18:43:00,
2013-03-07 08:53:00,72.0,-99.9,30.10,WSW,238,2.0,2.0,-999,-99.99,,,-99.99,,2013-03-07 18:53:00,
2013-03-07 09:03:00,72.0,-99.9,30.10,WSW,239,4.0,5.0,-999,-99.99,,,-99.99,,2013-03-07 19:03:00,
2013-03-07 09:12:00,72.0,-99.9,30.10,WSW,253,4.0,6.0,-999,-99.99,,,-99.99,,2013-03-07 19:12:00,
2013-03-07 09:24:00,72.0,-99.9,30.11,SW,224,4.0,6.0,-999,-99.99,,,-99.99,,2013-03-07 19:24:00,
2013-03-07 09:35:00,73.0,-99.9,30.10,SSW,206,4.0,7.0,-999,-99.99,,,-99.99,,2013-03-07 19:35:00,
2013-03-07 09:44:00,72.0,-99.9,30.11,SW,235,6.0,7.0,-999,-99.99,,,-99.99,,2013-03-07 19:44:00,
2013-03-07 09:53:00,72.0,-99.9,30.11,WSW,257,5.0,6.0,-999,-99.99,,,-99.99,,2013-03-07 19:53:00,
2013-03-07 10:02:00,73.0,-99.9,30.11,WSW,244,7.0,7.0,-999,-99.99,,,-99.99,,2013-03-07 20:02:00,
2013-03-07 10:14:00,73.0,-99.9,30.10,WSW,237,7.0,8.0,-999,-99.99,,,-99.99,,2013-03-07 20:14:00,
2013-03-07 10:23:00,73.0,-99.9,30.10,WSW,242,7.0,8.0,-999,-99.99,,,-99.99,,2013-03-07 20:23:00,
2013-03-07 10:34:00,74.0,-99.9,30.10,West,272,4.0,6.0,-999,-99.99,,,-99.99,,2013-03-07 20:34:00,
2013-03-07 10:43:00,75.0,-99.9,30.10,SSW,205,5.0,7.0,-999,-99.99,,,-99.99,,2013-03-07 20:43:00,
2013-03-07 10:54:00,75.0,-99.9,30.10,WSW,249,4.0,6.0,-999,-99.99,,,-99.99,,2013-03-07 20:54:00,
2013-03-07 11:03:00,75.0,-99.9,30.09,NNW,347,6.0,17.0,-999,-99.99,,,-99.99,,2013-03-07 21:03:00,
2013-03-07 11:13:00,75.0,-99.9,30.09,NW,323,5.0,7.0,-999,-99.99,,,-99.99,,2013-03-07 21:13:00,
2013-03-07 11:23:00,75.0,-99.9,30.09,NW,312,3.0,6.0,-999,-99.99,,,-99.99,,2013-03-07 21:23:00,
2013-03-07 11:33:00,76.0,-99.9,30.09,SW,219,5.0,9.0,-999,-99.99,,,-99.99,,2013-03-07 21:33:00,
2013-03-07 11:43:00,78.0,-99.9,30.09,South,174,6.0,11.0,-999,-99.99,,,-99.99,,2013-03-07 21:43:00,
2013-03-07 11:53:00,79.0,-99.9,30.09,SE,142,3.0,11.0,-999,-99.99,,,-99.99,,2013-03-07 21:53:00,
2013-03-07 12:02:00,78.0,-99.9,30.08,South,182,8.0,16.0,-999,-99.99,,,-99.99,,2013-03-07 22:02:00,
2013-03-07 12:12:00,78.0,-99.9,30.08,SSE,151,6.0,12.0,-999,-99.99,,,-99.99,,2013-03-07 22:12:00,
2013-03-07 12:23:00,78.0,-99.9,30.07,SSE,157,6.0,13.0,-999,-99.99,,,-99.99,,2013-03-07 22:23:00,
2013-03-07 12:33:00,78.0,-99.9,30.07,South,170,8.0,12.0,-999,-99.99,,,-99.99,,2013-03-07 22:33:00,
2013-03-07 12:44:00,79.0,-99.9,30.06,SSE,158,6.0,14.0,-999,-99.99,,,-99.99,,2013-03-07 22:44:00,
2013-03-07 12:55:00,78.0,-99.9,30.06,SSE,168,8.0,15.0,-999,-99.99,,,-99.99,,2013-03-07 22:55:00,
2013-03-07 13:03:00,78.0,-99.9,30.06,South,179,8.0,12.0,-999,-99.99,,,-99.99,,2013-03-07 23:03:00,
2013-03-07 13:13:00,78.0,-99.9,30.06,South,181,4.0,10.0,-999,-99.99,,,-99.99,,2013-03-07 23:13:00,
2013-03-07 13:22:00,78.0,-99.9,30.05,South,176,9.0,13.0,-999,-99.99,,,-99.99,,2013-03-07 23:22:00,
2013-03-07 13:35:00,78.0,-99.9,30.05,South,178,7.0,12.0,-999,-99.99,,,-99.99,,2013-03-07 23:35:00,
2013-03-07 13:44:00,78.0,-99.9,30.04,South,171,7.0,13.0,-999,-99.99,,,-99.99,,2013-03-07 23:44:00,
2013-03-07 13:54:00,78.0,-99.9,30.04,SSE,154,6.0,12.0,-999,-99.99,,,-99.99,,2013-03-07 23:54:00,
2013-03-07 14:05:00,78.0,-99.9,30.04,SSE,166,4.0,11.0,-999,-99.99,,,-99.99,,2013-03-08 00:05:00,
2013-03-07 14:13:00,78.0,-99.9,30.04,South,172,6.0,11.0,-999,-99.99,,,-99.99,,2013-03-08 00:13:00,
2013-03-07 14:23:00,78.0,-99.9,30.03,South,176,4.0,13.0,-999,-99.99,,,-99.99,,2013-03-08 00:23:00,
2013-03-07 14:35:00,78.0,-99.9,30.03,SSE,156,7.0,10.0,-999,-99.99,,,-99.99,,2013-03-08 00:35:00,
2013-03-07 14:44:00,77.0,-99.9,30.02,SSE,167,6.0,10.0,-999,-99.99,,,-99.99,,2013-03-08 00:44:00,
2013-03-07 14:54:00,77.0,-99.9,30.02,South,173,7.0,13.0,-999,-99.99,,,-99.99,,2013-03-08 00:54:00,
2013-03-07 15:02:00,78.0,-99.9,30.01,South,177,4.0,11.0,-999,-99.99,,,-99.99,,2013-03-08 01:02:00,
2013-03-07 15:12:00,77.0,-99.9,30.01,South,169,7.0,11.0,-999,-99.99,,,-99.99,,2013-03-08 01:12:00,
2013-03-07 15:22:00,77.0,-99.9,30.01,South,186,6.0,10.0,-999,-99.99,,,-99.99,,2013-03-08 01:22:00,
2013-03-07 15:33:00,77.0,-99.9,30.01,South,188,7.0,10.0,-999,-99.99,,,-99.99,,2013-03-08 01:33:00,
2013-03-07 15:42:00,77.0,-99.9,30.00,South,186,6.0,8.0,-999,-99.99,,,-99.99,,2013-03-08 01:42:00,
2013-03-07 15:52:00,77.0,-99.9,30.00,South,179,5.0,10.0,-999,-99.99,,,-99.99,,2013-03-08 01:52:00,
2013-03-07 16:02:00,77.0,-99.9,30.00,SSE,147,6.0,10.0,-999,-99.99,,,-99.99,,2013-03-08 02:02:00,
2013-03-07 16:12:00,78.0,-99.9,30.00,South,172,5.0,9.0,-999,-99.99,,,-99.99,,2013-03-08 02:12:00,
2013-03-07 16:22:00,77.0,-99.9,30.00,South,178,4.0,12.0,-999,-99.99,,,-99.99,,2013-03-08 02:22:00,
2013-03-07 16:32:00,77.0,-99.9,30.00,SSW,209,6.0,9.0,-999,-99.99,,,-99.99,,2013-03-08 02:32:00,
2013-03-07 16:42:00,77.0,-99.9,30.00,South,171,4.0,10.0,-999,-99.99,,,-99.99,,2013-03-08 02:42:00,
2013-03-07 16:53:00,77.0,-99.9,30.01,SSW,194,6.0,9.0,-999,-99.99,,,-99.99,,2013-03-08 02:53:00,
2013-03-07 17:02:00,77.0,-99.9,30.01,SSE,156,4.0,9.0,-999,-99.99,,,-99.99,,2013-03-08 03:02:00,
2013-03-07 17:12:00,77.0,-99.9,30.01,SSW,192,4.0,9.0,-999,-99.99,,,-99.99,,2013-03-08 03:12:00,
2013-03-07 17:22:00,77.0,-99.9,30.01,South,185,4.0,8.0,-999,-99.99,,,-99.99,,2013-03-08 03:22:00,
2013-03-07 17:33:00,77.0,-99.9,30.01,South,189,5.0,10.0,-999,-99.99,,,-99.99,,2013-03-08 03:33:00,
2013-03-07 17:43:00,77.0,-99.9,30.01,South,182,4.0,8.0,-999,-99.99,,,-99.99,,2013-03-08 03:43:00,
2013-03-07 17:53:00,77.0,-99.9,30.01,SSE,168,4.0,7.0,-999,-99.99,,,-99.99,,2013-03-08 03:53:00,
2013-03-07 18:02:00,76.0,-99.9,30.02,South,189,4.0,9.0,-999,-99.99,,,-99.99,,2013-03-08 04:02:00,
2013-03-07 18:12:00,77.0,-99.9,30.02,South,190,2.0,6.0,-999,-99.99,,,-99.99,,2013-03-08 04:12:00,
2013-03-07 18:22:00,76.0,-99.9,30.02,South,188,4.0,6.0,-999,-99.99,,,-99.99,,2013-03-08 04:22:00,
2013-03-07 18:32:00,76.0,-99.9,30.02,South,183,4.0,6.0,-999,-99.99,,,-99.99,,2013-03-08 04:32:00,
2013-03-07 18:42:00,76.0,-99.9,30.03,South,175,4.0,7.0,-999,-99.99,,,-99.99,,2013-03-08 04:42:00,
2013-03-07 18:52:00,75.0,-99.9,30.03,SSE,151,3.0,7.0,-999,-99.99,,,-99.99,,2013-03-08 04:52:00,
2013-03-07 19:02:00,75.0,-99.9,30.03,SSE,151,3.0,6.0,-999,-99.99,,,-99.99,,2013-03-08 05:02:00,
2013-03-07 19:12:00,75.0,-99.9,30.03,SW,231,1.0,3.0,-999,-99.99,,,-99.99,,2013-03-08 05:12:00,
2013-03-07 19:22:00,75.0,-99.9,30.03,SW,226,3.0,4.0,-999,-99.99,,,-99.99,,2013-03-08 05:22:00,
2013-03-07 19:33:00,75.0,-99.9,30.04,SW,234,2.0,4.0,-999,-99.99,,,-99.99,,2013-03-08 05:33:00,
2013-03-07 19:42:00,74.0,-99.9,30.04,West,278,2.0,3.0,-999,-99.99,,,-99.99,,2013-03-08 05:42:00,
2013-03-07 19:52:00,74.0,-99.9,30.04,North,351,3.0,6.0,-999,-99.99,,,-99.99,,2013-03-08 05:52:00,
2013-03-07 20:02:00,74.0,-99.9,30.04,North,350,4.0,7.0,-999,-99.99,,,-99.99,,2013-03-08 06:02:00,
2013-03-07 20:11:00,74.0,-99.9,30.05,NNE,33,2.0,3.0,-999,-99.99,,,-99.99,,2013-03-08 06:11:00,
2013-03-07 20:22:00,73.0,-99.9,30.05,NE,51,3.0,5.0,-999,-99.99,,,-99.99,,2013-03-08 06:22:00,
2013-03-07 20:32:00,73.0,-99.9,30.05,ENE,62,5.0,8.0,-999,-99.99,,,-99.99,,2013-03-08 06:32:00,
2013-03-07 20:42:00,73.0,-99.9,30.06,ENE,68,5.0,7.0,-999,-99.99,,,-99.99,,2013-03-08 06:42:00,
2013-03-07 20:52:00,73.0,-99.9,30.06,ENE,64,5.0,7.0,-999,-99.99,,,-99.99,,2013-03-08 06:52:00,
2013-03-07 21:01:00,73.0,-99.9,30.06,ENE,68,4.0,6.0,-999,-99.99,,,-99.99,,2013-03-08 07:01:00,
2013-03-07 21:11:00,73.0,-99.9,30.06,ENE,68,5.0,7.0,-999,-99.99,,,-99.99,,2013-03-08 07:11:00,
2013-03-07 21:22:00,72.0,-99.9,30.06,ENE,72,5.0,7.0,-999,-99.99,,,-99.99,,2013-03-08 07:22:00,
2013-03-07 21:32:00,72.0,-99.9,30.06,NE,55,4.0,5.0,-999,-99.99,,,-99.99,,2013-03-08 07:32:00,
2013-03-07 21:42:00,72.0,-99.9,30.06,ENE,66,3.0,5.0,-999,-99.99,,,-99.99,,2013-03-08 07:42:00,
2013-03-07 21:52:00,72.0,-99.9,30.06,ENE,66,3.0,4.0,-999,-99.99,,,-99.99,,2013-03-08 07:52:00,
2013-03-07 22:02:00,72.0,-99.9,30.06,NNW,343,-999.0,4.0,-999,-99.99,,,-99.99,,2013-03-08 08:02:00,
2013-03-07 22:11:00,72.0,-99.9,30.06,North,350,3.0,4.0,-999,-99.99,,,-99.99,,2013-03-08 08:11:00,
2013-03-07 22:22:00,72.0,-99.9,30.06,North,8,1.0,3.0,-999,-99.99,,,-99.99,,2013-03-08 08:22:00,
2013-03-07 22:32:00,72.0,-99.9,30.06,North,355,1.0,2.0,-999,-99.99,,,-99.99,,2013-03-08 08:32:00,
2013-03-07 22:42:00,72.0,-99.9,30.06,NNE,30,0.0,2.0,-999,-99.99,,,-99.99,,2013-03-08 08:42:00,
2013-03-07 22:52:00,71.0,-99.9,30.07,ENE,73,2.0,2.0,-999,-99.99,,,-99.99,,2013-03-08 08:52:00,
2013-03-07 23:03:00,71.0,-99.9,30.07,North,5,1.0,2.0,-999,-99.99,,,-99.99,,2013-03-08 09:03:00,
2013-03-07 23:11:00,71.0,-99.9,30.06,NNW,348,2.0,3.0,-999,-99.99,,,-99.99,,2013-03-08 09:11:00,
2013-03-07 23:22:00,71.0,-99.9,30.06,ESE,107,1.0,2.0,-999,-99.99,,,-99.99,,2013-03-08 09:22:00,
2013-03-07 23:32:00,71.0,-99.9,30.06,NNW,343,-999.0,3.0,-999,-99.99,,,-99.99,,2013-03-08 09:32:00,
2013-03-07 23:42:00,71.0,-99.9,30.06,NE,51,2.0,3.0,-999,-99.99,,,-99.99,,2013-03-08 09:42:00,
2013-03-07 23:52:00,71.0,-99.9,30.06,NE,44,1.0,2.0,-999,-99.99,,,-99.99,,2013-03-08 09:52:00,